Theta_e
315 324 319 324 328 325 325 324 326 331 335 336 336 340 343 340 340 340 338 339 338 339 343 321 316 314 314 314 314 314 313 312 312 313 314 316 318 318 316 316 314 312 313 322 323 316 318 322 325
326 320 325 328 326 326 325 325 326 328 331 332 334 336 339 342 339 336 335 339 339 340 344 335 316 314 313 313 314 313 313 312 311 311 311 311 311 311 311 311 310 313 322 323 325 325 321 319 322
322 322 327 325 325 325 325 324 325 326 329 332 334 334 337 337 339 335 336 338 339 341 343 338 318 314 312 312 313 313 313 312 312 312 312 312 312 312 312 313 314 324 329 329 329 328 324 326 328
321 322 324 328 325 324 324 326 326 327 332 333 335 337 334 336 338 336 337 336 338 340 340 337 319 315 312 312 313 313 313 312 312 312 313 313 313 314 315 316 319 328 332 333 333 330 328 330 331
323 324 323 323 323 324 325 324 327 329 330 331 334 337 338 336 338 338 337 335 336 338 338 339 321 315 312 311 313 314 313 313 313 313 313 313 314 315 316 318 321 328 333 335 335 334 332 333 335
324 324 322 322 322 323 324 324 325 327 328 330 333 336 338 338 339 338 337 336 335 337 339 337 326 316 313 312 312 314 314 313 313 313 314 314 315 316 317 319 321 327 333 333 334 335 335 335 337
323 323 321 321 321 321 322 323 324 325 327 330 333 337 338 336 338 338 337 338 338 338 340 339 341 324 315 313 312 314 315 314 313 314 314 315 316 317 318 319 321 324 326 329 332 335 337 337 335
325 323 322 321 320 322 323 325 325 324 326 330 332 337 338 334 339 340 338 338 339 339 339 340 341 340 337 335 317 314 315 316 314 315 315 316 318 319 319 320 322 324 325 327 329 334 334 335 334
326 327 326 323 320 320 321 323 324 328 329 331 331 332 331 338 341 341 339 337 337 337 338 339 338 340 340 336 337 325 324 322 317 320 318 324 330 332 330 330 332 323 323 327 331 330 331 329 330
328 329 327 325 323 322 321 322 325 328 329 332 331 331 330 332 336 340 341 339 337 337 338 339 338 337 340 338 338 343 339 338 337 334 335 333 330 332 333 333 330 324 325 331 332 332 334 332 336
328 330 327 327 324 323 322 322 323 326 329 332 332 331 332 331 331 333 335 339 337 338 339 339 340 339 338 338 338 340 341 340 340 338 335 336 333 333 334 333 336 334 332 335 335 336 338 338 337
328 329 329 328 326 325 324 323 324 323 324 327 328 329 329 331 332 332 333 333 335 338 340 341 343 342 338 337 337 338 339 340 341 341 339 337 337 335 335 333 332 334 335 334 335 337 338 338 338
326 326 327 326 327 326 326 326 327 327 326 326 327 329 331 332 332 331 331 332 332 333 335 339 342 347 342 338 338 339 339 339 340 341 341 340 339 337 336 333 331 332 334 335 336 337 338 338 339
323 324 325 326 326 327 327 327 329 330 330 330 331 332 331 331 331 330 330 331 332 333 334 336 338 341 345 342 343 341 341 340 340 340 340 343 340 338 336 335 333 331 332 333 334 335 337 338 338
319 321 322 324 325 326 328 330 331 330 331 332 331 331 331 331 330 330 330 330 333 332 333 334 336 336 338 341 340 343 341 342 340 340 342 342 343 339 338 336 333 331 331 334 334 333 336 339 339
316 318 321 322 324 325 326 330 329 329 329 331 331 331 331 331 331 329 330 330 332 332 331 332 332 331 332 335 338 340 341 341 341 341 342 343 344 342 340 338 335 332 332 333 332 331 335 339 338
318 318 320 321 322 324 325 328 328 328 329 329 330 330 330 331 330 329 330 330 330 331 332 331 334 334 334 333 337 341 342 342 341 342 343 344 343 343 342 341 338 335 333 332 330 331 339 337 336
316 318 318 320 322 322 323 324 325 327 327 329 329 329 330 330 331 330 329 329 328 328 329 332 335 334 335 334 340 340 342 343 342 343 343 344 343 343 342 341 340 337 333 330 331 339 337 336 335
313 316 319 319 319 322 324 324 325 325 325 327 328 329 329 329 329 328 327 327 327 328 330 332 334 338 337 338 340 341 342 343 343 344 345 344 344 344 342 342 340 338 332 333 338 338 337 336 337
311 314 317 319 318 320 322 324 324 325 325 326 327 328 328 328 329 328 327 326 326 329 330 332 334 336 339 339 341 342 343 344 344 344 345 345 344 344 343 341 339 337 336 338 340 338 337 336 335
311 313 315 317 318 320 321 323 324 324 325 325 325 326 325 326 326 326 326 325 326 327 328 331 333 336 340 339 343 345 345 343 344 344 345 345 345 344 342 342 340 340 339 340 340 338 337 335 334
310 310 311 314 318 320 320 323 323 323 324 324 325 325 325 325 325 325 325 326 324 325 325 326 331 337 340 342 341 343 342 343 343 344 345 345 344 343 343 343 341 341 339 339 338 336 337 336 334
309 310 311 314 316 318 318 322 322 322 323 323 324 324 323 323 323 323 323 323 322 322 323 325 329 337 341 343 340 343 342 344 345 345 347 345 345 344 344 343 342 341 339 339 337 337 337 335 332
310 310 311 314 316 320 318 319 320 320 321 322 322 321 321 321 321 322 323 322 322 321 322 324 331 341 344 344 343 345 344 345 345 346 347 346 346 345 343 341 341 340 339 338 337 337 336 333 332
309 311 313 315 317 318 317 319 320 321 320 320 321 320 320 321 322 323 324 326 324 324 325 332 339 344 345 345 345 346 347 347 348 347 345 344 341 340 341 340 340 339 339 338 336 336 334 334 332
309 310 314 315 316 315 315 317 318 318 319 320 319 320 321 324 326 328 331 333 326 325 329 337 342 345 346 345 346 347 347 346 345 342 342 340 338 338 341 340 340 338 339 337 336 335 333 333 332
310 310 310 311 311 314 315 316 316 318 319 319 319 319 321 324 330 335 337 336 331 327 333 338 343 345 345 345 345 345 344 343 342 342 341 339 339 340 341 340 340 339 337 336 335 333 333 332 332
312 310 311 310 315 314 314 316 316 317 317 318 319 320 321 323 326 332 339 337 332 336 340 343 346 346 345 345 345 344 343 342 342 341 339 339 339 338 339 339 338 337 335 335 334 333 332 332 333
314 310 311 313 310 310 314 315 317 318 319 320 320 320 320 321 324 331 340 338 338 340 343 346 346 346 345 344 342 341 340 340 340 340 339 339 339 338 337 336 336 335 335 334 333 332 332 332 333
311 314 315 317 315 312 313 318 318 319 320 320 319 320 320 321 322 330 340 337 341 343 345 346 345 344 343 341 340 340 339 339 339 338 338 338 336 336 335 334 334 334 333 333 331 332 332 332 332
Wind_Speed
11 5 4 6 7 7 13 9 14 6 9 3 2 6 11 1 13 2 5 18 17 25 26 32 30 29 29 28 27 26 26 25 24 23 22 21 20 18 16 16 14 13 11 10 10 8 6 4 3
8 7 6 5 8 12 11 13 11 8 5 6 10 12 9 13 7 1 10 17 19 25 27 30 33 31 31 30 28 27 26 25 25 23 22 21 20 19 17 15 14 13 12 11 10 8 7 5 3
8 8 6 6 13 16 11 7 12 10 4 9 5 5 11 8 8 2 10 20 19 22 24 29 33 33 33 32 30 28 26 26 25 24 23 22 20 18 17 15 14 13 12 11 11 9 7 6 4
9 7 5 11 18 15 17 2 2 7 4 1 7 6 7 3 1 7 17 20 20 21 23 28 33 34 35 33 32 29 27 25 25 24 23 21 19 16 15 14 14 14 13 11 10 9 7 5 4
9 5 11 16 22 20 11 14 8 10 8 8 6 12 8 4 4 9 22 21 20 21 23 23 31 34 33 32 30 28 27 26 25 24 22 19 18 16 15 15 14 14 13 11 9 8 6 6 5
7 5 12 17 20 16 17 15 13 15 14 12 10 14 10 3 9 14 20 19 18 20 19 19 28 33 33 32 30 29 29 29 27 26 23 21 19 18 17 16 14 13 13 12 11 9 8 7 6
14 11 17 20 18 15 17 13 15 16 12 12 6 11 6 6 7 14 17 16 15 15 16 18 20 31 33 32 31 31 31 29 28 27 24 23 21 20 18 17 16 15 14 13 12 12 10 9 8
10 10 20 19 16 21 14 9 13 11 17 3 5 7 9 4 3 10 13 16 14 14 16 17 18 21 24 24 32 32 31 30 29 28 27 26 24 23 22 19 18 16 14 15 13 12 12 9 9
13 13 16 21 16 16 10 14 16 5 11 5 1 4 6 4 5 6 10 15 16 15 17 17 19 21 22 23 21 30 30 31 31 30 29 27 21 21 21 21 20 19 18 16 14 13 12 9 8
15 16 24 17 12 13 17 17 11 7 13 12 8 7 4 7 5 5 10 17 20 19 19 19 19 20 19 19 19 19 23 25 26 26 25 26 24 22 22 22 24 21 18 15 14 12 13 9 7
22 25 19 20 14 15 19 19 16 14 17 14 12 8 5 5 5 5 7 14 19 19 17 17 16 18 19 18 19 20 21 24 26 28 27 25 25 24 24 22 21 20 20 16 14 13 14 11 8
25 24 25 22 16 14 19 19 23 21 22 21 7 11 14 12 11 9 9 10 15 18 18 15 16 17 21 21 21 22 23 24 24 24 27 27 27 26 25 25 22 21 19 19 16 15 15 12 11
28 28 22 20 20 19 15 24 23 23 22 21 18 16 17 18 14 13 14 15 13 14 14 14 15 15 17 22 22 25 27 25 24 24 26 28 28 27 26 25 24 21 20 18 17 15 13 13 12
22 25 29 26 20 18 23 27 24 22 22 22 20 21 20 16 15 15 17 18 17 14 12 11 13 13 15 19 21 25 24 23 23 24 25 28 27 26 25 25 25 23 20 18 17 15 14 14 12
24 27 25 22 26 28 18 24 36 25 26 21 19 19 19 18 19 16 20 19 16 14 11 11 12 13 18 20 21 20 20 19 22 23 24 25 27 25 25 24 25 23 20 17 15 14 14 14 13
18 23 24 33 25 25 23 32 37 25 26 28 26 23 22 20 17 18 18 16 14 11 13 15 16 19 20 20 19 18 18 19 18 20 21 24 24 24 23 23 23 22 20 18 17 15 14 12 12
21 24 32 31 30 25 18 32 35 28 21 19 21 19 19 18 16 18 16 16 15 13 13 20 20 20 18 18 18 17 16 17 17 19 20 20 22 22 22 20 20 19 20 18 16 15 12 11 12
26 29 29 30 23 27 30 34 29 19 11 20 22 22 20 17 16 18 16 16 18 18 21 22 19 17 15 13 15 14 14 15 17 18 18 18 19 21 22 18 17 17 18 16 17 14 11 10 10
27 29 26 29 23 25 28 34 32 28 28 24 22 20 19 20 19 22 21 20 19 22 23 22 20 15 12 11 15 14 15 15 16 16 17 18 17 19 19 17 17 18 17 17 15 11 11 8 6
28 30 32 22 16 21 28 33 28 27 27 27 26 24 23 21 19 18 21 22 23 22 19 17 15 14 14 12 14 9 13 14 15 15 16 16 17 18 18 17 17 17 15 15 13 11 8 9 7
24 27 26 29 16 19 21 29 29 28 28 24 21 22 22 21 21 19 19 23 23 22 20 17 13 12 14 14 13 11 12 12 15 15 15 16 17 18 18 17 16 16 15 15 13 12 11 8 8
24 24 27 26 25 19 21 22 24 26 27 28 26 22 21 19 18 18 20 21 26 25 24 21 15 12 12 14 17 17 16 14 14 17 16 17 17 17 17 18 15 15 15 12 13 11 11 9 9
23 21 26 20 23 25 29 17 17 17 20 20 19 20 20 19 20 21 20 21 26 25 22 21 17 14 13 17 16 17 15 12 15 17 19 18 17 16 17 16 15 15 14 12 12 11 10 9 9
17 17 21 18 20 22 33 24 23 22 25 22 20 16 15 15 14 12 14 17 20 22 20 18 16 13 15 17 16 17 16 16 18 19 20 18 17 16 15 15 15 14 13 12 11 10 9 10 9
15 17 13 15 13 16 22 23 20 7 6 12 13 6 5 6 6 8 10 11 12 18 17 14 15 15 16 17 17 16 17 17 19 21 18 18 17 15 16 15 14 13 13 11 9 9 9 9 10
18 18 13 19 17 20 22 15 17 17 24 14 10 10 3 6 7 8 10 10 10 13 16 15 16 16 18 18 18 18 19 18 18 16 17 15 15 14 15 14 12 12 11 9 9 9 8 9 10
22 18 21 23 24 19 18 24 22 8 9 9 3 5 3 8 9 11 11 8 9 10 14 16 17 18 20 21 20 19 17 17 17 16 16 14 12 13 14 13 12 10 9 9 9 8 8 8 9
21 12 13 14 14 17 18 21 12 25 27 16 5 1 7 10 12 13 10 7 5 9 12 16 19 22 22 22 21 19 18 17 18 17 14 14 13 12 12 11 10 9 10 10 9 8 9 9 9
13 18 9 16 13 16 13 16 18 12 14 12 5 5 11 13 13 13 10 7 3 10 15 18 20 22 23 22 21 21 20 19 17 16 14 13 11 10 10 10 10 10 11 10 9 8 8 9 8
13 8 5 11 14 15 15 3 2 14 15 8 3 9 12 14 14 13 10 4 4 11 17 19 20 22 22 22 22 21 20 18 16 14 12 11 10 10 9 10 10 11 11 9 10 10 8 8 8
Wind_Direction
222 202 207 231 237 236 238 225 243 223 200 144 84 206 210 328 168 233 105 155 149 163 173 182 189 190 192 192 190 189 185 185 187 188 189 191 195 195 192 190 186 183 178 169 166 168 170 174 173
177 175 200 256 250 225 228 221 209 224 233 292 256 233 246 246 255 4 141 158 156 165 172 180 189 193 196 196 196 194 189 189 187 189 191 190 191 192 188 186 181 177 171 170 168 168 165 166 169
176 204 239 233 237 246 246 179 229 224 259 268 267 235 208 228 219 230 123 156 157 168 176 182 191 196 198 197 200 197 195 194 192 191 192 192 190 189 184 180 176 173 174 174 172 172 173 175 184
180 194 240 245 241 234 254 80 276 170 246 219 239 251 207 236 177 200 157 161 165 174 183 192 195 199 201 199 201 200 200 200 200 197 197 196 192 191 186 182 178 177 179 181 181 181 184 194 207
208 253 239 232 245 251 245 264 256 272 276 274 263 249 233 184 174 167 165 168 173 179 188 193 198 202 204 204 203 204 204 206 206 207 203 201 198 195 192 191 187 184 184 185 189 193 201 208 225
213 252 240 240 244 243 250 253 262 261 273 272 259 240 241 109 176 170 170 176 181 183 186 189 204 202 207 209 208 209 209 210 209 211 209 206 203 202 198 198 195 191 195 190 193 201 210 223 244
243 224 244 251 257 266 253 245 250 259 257 247 302 246 214 208 152 166 174 179 184 187 187 189 198 204 209 215 214 215 214 214 214 214 212 211 209 208 204 203 202 199 200 201 198 198 205 223 238
231 241 255 248 251 255 260 250 243 252 253 19 208 237 159 312 192 179 179 185 190 194 199 195 197 203 206 212 221 221 221 220 219 219 218 215 210 210 210 209 210 206 206 203 197 220 200 217 237
236 241 242 243 231 252 259 255 247 254 252 212 263 95 25 51 138 173 191 195 202 208 210 204 206 204 208 211 222 226 227 226 224 223 221 215 210 213 212 214 218 215 217 213 206 204 219 197 234
217 229 242 250 254 248 245 253 255 247 230 224 214 200 46 64 94 202 207 208 209 212 216 214 211 210 209 212 215 220 222 224 222 218 214 211 214 215 213 219 221 224 225 224 227 211 227 203 230
223 241 239 242 245 255 262 258 248 243 247 236 224 229 236 314 298 278 240 237 226 224 227 221 217 213 211 218 218 221 224 224 224 219 213 214 214 217 217 219 224 222 229 228 232 226 232 229 230
238 246 246 254 242 245 256 264 261 256 256 257 227 260 287 286 294 281 267 249 236 240 241 229 225 220 223 220 225 228 227 225 225 222 216 211 211 214 217 218 219 218 220 226 229 229 232 233 232
237 243 245 244 259 253 260 256 257 255 251 252 261 264 266 279 272 271 278 267 264 261 251 237 227 225 233 234 232 234 229 228 224 220 218 213 215 215 217 220 220 221 222 225 228 232 232 237 239
244 245 249 252 237 244 250 257 256 249 253 258 256 258 259 256 259 263 263 259 262 268 274 253 226 227 237 241 241 238 237 231 224 225 221 216 215 217 220 221 223 223 224 227 227 228 234 240 241
255 259 261 243 242 239 240 266 249 245 251 254 250 250 255 256 258 249 248 252 258 259 266 271 266 254 247 246 251 245 236 231 226 226 220 216 214 217 218 225 224 224 225 225 223 226 235 245 244
259 245 246 237 230 241 225 254 258 228 234 245 248 250 253 252 251 245 243 245 246 254 266 270 276 270 263 256 251 243 233 224 224 220 216 212 212 213 216 224 223 222 221 221 224 230 241 243 249
241 243 236 244 229 223 209 240 250 259 242 232 244 245 250 253 237 236 242 245 244 244 260 271 271 266 266 264 249 234 226 217 213 209 209 206 206 207 213 220 219 215 217 219 224 236 230 244 251
235 236 245 256 235 222 226 244 249 244 234 245 242 244 247 251 253 254 251 250 255 257 259 257 257 256 260 259 242 221 218 210 205 203 203 198 198 201 205 212 208 205 208 215 223 220 226 248 258
260 267 266 255 249 254 226 240 246 244 253 249 252 248 250 250 259 267 269 269 267 261 252 252 256 253 243 231 228 210 209 202 198 199 196 191 191 195 196 201 194 197 201 213 209 214 221 236 250
250 252 255 261 283 245 246 243 246 249 250 251 250 252 256 260 260 261 267 264 260 258 257 261 259 256 246 228 222 210 197 198 193 193 188 184 186 189 189 190 185 191 197 201 205 201 216 233 229
260 252 251 251 268 239 254 252 249 244 245 253 257 258 260 260 264 268 265 263 264 259 262 266 260 257 245 220 198 182 170 175 181 180 176 178 182 181 183 182 177 184 195 197 200 208 221 234 218
260 251 254 249 244 242 219 253 242 233 239 243 248 249 255 257 260 261 265 267 267 268 268 262 253 242 236 207 201 181 186 183 186 175 170 168 173 174 177 176 171 181 196 187 200 213 220 215 223
260 253 249 240 240 249 246 251 253 259 254 252 254 255 257 263 262 264 272 274 270 263 257 251 243 235 223 206 197 186 205 176 165 162 154 157 163 169 175 175 181 189 201 195 203 207 217 217 239
251 256 239 246 238 230 236 241 253 252 253 250 250 250 260 259 264 266 276 275 264 251 241 237 226 212 203 198 186 189 180 164 157 154 155 154 161 167 169 174 184 191 201 201 205 207 209 223 227
245 243 231 221 230 242 227 228 238 242 329 294 250 234 285 286 267 280 279 280 252 232 220 211 200 193 189 180 172 173 166 162 153 154 154 155 162 165 173 178 186 193 200 205 201 205 208 214 226
245 231 230 222 224 233 231 234 224 238 253 207 276 267 268 342 336 304 303 288 253 227 201 191 184 180 174 162 157 156 154 151 149 152 152 161 165 172 174 184 190 193 197 199 204 204 215 215 216
252 250 241 264 278 246 219 219 251 226 217 204 186 203 340 353 349 341 329 301 252 212 193 189 177 169 162 149 147 146 147 148 146 146 152 152 158 162 168 179 185 192 199 205 199 213 212 213 209
244 262 269 243 251 240 236 209 223 216 232 234 164 83 10 6 350 353 350 337 238 177 171 167 162 159 150 146 147 145 142 141 142 145 149 153 154 159 168 179 192 194 196 197 197 202 203 205 209
284 226 216 261 259 255 221 221 212 241 190 147 112 25 18 1 350 360 7 341 194 162 153 152 152 148 146 146 143 140 139 138 140 144 146 151 154 166 176 184 185 186 187 192 195 205 197 210 201
241 228 322 262 231 252 275 72 111 155 119 113 20 14 2 355 348 1 25 4 179 155 147 147 147 147 145 143 142 140 138 140 142 144 148 156 164 173 173 174 178 181 186 185 193 199 195 205 212